Theta_e
295 295 295 296 295 294 293 293 293 292 294 294 292 292 295 295 289 287 295 296 294 297 298 301 301 301 300 301 302 303 304 304 304 303 303 303 303 304 304 306 307 307 307 308 309 309 309 310 310 310 309 309 311 311 312 311 312 311 313 313 314 315 315 315 315 317 317 318 319 320 320 320 321 321 321 322 323 323 324 324 325 325 326 326 326 326 329
294 295 295 296 294 294 293 294 294 295 294 294 294 294 296 295 294 297 296 296 296 299 301 301 302 303 302 303 304 304 303 303 303 303 302 302 303 303 304 305 305 307 307 308 308 309 309 309 309 308 308 308 308 309 310 311 311 311 311 311 312 313 313 314 315 315 316 317 317 318 318 318 319 319 320 321 322 322 322 323 324 324 324 324 324 324 325
291 294 296 296 295 294 292 294 295 295 294 294 295 295 296 296 295 296 296 295 294 301 303 303 305 304 304 304 302 302 303 302 302 302 302 302 303 303 304 305 306 306 307 307 308 308 309 308 309 308 308 308 308 308 309 310 310 310 310 310 311 312 312 313 314 314 315 316 316 316 317 317 318 317 318 319 320 320 321 322 323 323 323 323 323 324 324
289 294 294 294 295 295 294 293 293 293 293 291 294 291 296 294 292 294 294 291 293 299 302 303 304 303 302 301 302 302 302 302 302 301 301 302 302 303 304 305 306 306 306 306 307 307 308 308 309 307 307 307 307 307 308 309 309 310 310 310 310 310 311 312 312 313 314 314 315 315 316 315 316 316 317 317 317 318 319 320 321 322 322 322 322 323 324
288 293 294 294 294 293 288 288 292 294 295 295 296 296 297 297 296 290 289 291 300 301 302 300 301 302 301 301 301 301 302 303 302 302 301 302 302 303 304 304 305 306 306 306 307 308 307 308 308 308 308 307 307 308 308 309 310 309 309 309 309 309 310 311 311 313 313 313 313 314 314 314 315 315 315 316 316 316 316 318 319 318 320 321 321 322 323
288 292 293 294 290 282 284 296 299 297 295 295 292 293 296 298 298 292 297 298 300 301 300 299 300 300 301 302 303 304 303 303 303 302 303 303 303 304 305 305 305 306 307 307 308 308 308 308 308 309 309 308 308 309 308 309 308 308 308 308 309 309 309 310 310 311 312 312 312 313 313 314 314 313 314 314 315 315 315 316 316 316 318 318 319 320 321
288 292 292 287 281 284 296 299 300 300 299 298 296 297 297 298 300 299 298 298 298 300 301 301 302 302 303 304 303 304 304 304 303 303 303 303 304 304 304 305 305 306 307 307 308 308 307 308 309 309 308 308 309 308 308 308 307 307 308 308 308 308 309 309 309 310 310 311 312 312 313 313 314 313 313 313 313 314 314 314 314 314 315 316 317 318 319
291 289 287 279 282 294 298 299 301 301 299 299 298 292 297 298 299 300 297 299 300 301 301 302 304 304 304 305 305 305 305 306 305 303 303 304 305 304 305 305 306 306 306 307 307 308 309 308 308 308 308 310 308 307 308 307 306 307 307 307 306 308 307 308 308 309 310 311 311 312 312 312 312 312 312 311 311 312 311 312 313 313 314 315 315 316 317
286 287 287 286 293 292 295 295 297 297 292 294 291 287 292 299 299 299 298 299 300 301 302 303 303 303 303 301 302 305 305 305 306 306 305 305 305 306 306 307 307 308 308 307 309 308 308 307 308 308 309 308 308 307 307 307 306 306 307 306 305 306 306 307 308 309 310 310 310 311 311 311 310 311 310 309 309 310 309 309 309 309 311 312 314 315 316
291 287 286 286 285 282 288 297 301 303 303 303 301 296 289 300 300 301 300 299 300 301 302 302 303 303 299 297 299 303 305 306 306 306 306 306 306 307 307 307 308 308 309 308 309 308 308 307 308 307 308 307 307 307 306 306 305 306 306 305 305 306 306 307 308 309 310 310 309 309 309 309 309 309 309 308 308 309 307 306 306 307 309 310 312 313 314
290 288 285 284 281 285 294 297 301 303 303 302 302 293 288 298 299 300 300 299 300 301 301 302 302 299 294 295 300 304 305 306 307 305 306 306 307 307 307 307 306 306 308 308 308 308 307 306 307 308 308 308 307 306 305 305 306 305 305 305 305 305 306 307 309 309 309 309 309 308 308 307 308 307 307 307 307 307 306 306 306 307 307 308 309 311 313
289 288 285 284 288 286 295 300 300 301 303 302 298 285 286 297 300 300 301 300 301 302 302 303 300 297 293 295 300 306 307 307 307 306 305 305 305 306 307 307 307 306 307 307 307 307 306 306 308 307 307 307 307 306 305 305 305 304 304 305 305 306 307 308 309 309 309 309 308 308 307 308 308 307 307 306 306 305 305 305 305 306 306 307 307 308 310
289 287 288 289 290 295 302 301 301 302 304 300 287 283 290 300 301 302 302 302 303 303 303 302 298 300 302 303 305 307 307 306 305 306 307 306 306 306 306 306 304 305 305 305 305 306 306 306 307 307 307 306 306 305 304 304 304 304 305 305 305 305 306 307 308 308 309 309 308 308 308 307 307 306 306 305 305 305 304 304 305 305 306 307 307 308 310
288 290 287 287 291 300 302 302 303 303 298 287 286 297 304 302 302 302 303 302 304 305 303 302 302 303 305 305 306 305 306 305 306 305 305 306 306 306 306 306 305 306 305 306 306 306 307 306 307 307 307 306 306 305 304 304 304 305 305 305 305 304 306 307 308 308 309 309 308 308 308 307 306 305 306 306 305 304 304 304 304 305 306 306 306 307 309
292 289 287 286 282 293 303 302 299 301 291 292 300 302 303 304 304 303 303 304 305 305 303 304 304 304 304 304 304 305 305 305 304 304 305 305 305 305 305 306 306 304 304 304 305 306 306 307 307 307 307 306 306 305 303 305 305 305 305 305 304 304 306 307 307 308 308 308 307 307 307 306 306 305 305 305 305 304 304 304 304 304 304 306 306 307 308
287 288 284 285 293 300 304 301 293 298 300 305 304 304 302 304 304 304 303 304 306 305 304 302 302 303 303 303 304 305 304 305 305 305 306 306 306 305 306 305 306 306 305 305 305 306 306 307 307 307 307 306 305 303 303 305 305 305 305 305 304 304 306 307 307 307 307 307 308 307 307 306 306 305 304 304 304 303 303 303 303 303 304 305 305 305 306
292 290 294 301 302 304 305 304 304 305 306 307 307 305 305 303 304 306 304 304 305 306 305 304 303 302 303 303 304 304 304 304 305 305 305 305 305 306 306 307 308 306 305 304 305 305 306 307 308 307 307 306 304 302 304 304 304 304 304 304 304 304 305 306 307 306 307 307 306 307 306 306 305 305 304 304 303 304 303 302 303 303 303 304 303 304 305
302 303 303 305 304 304 305 306 307 307 308 309 307 306 304 306 306 306 305 305 305 305 306 303 303 303 304 303 304 304 304 304 305 306 306 306 307 307 307 307 307 306 306 305 304 304 305 306 307 307 307 306 304 303 303 303 304 304 304 303 303 304 305 306 306 306 306 306 306 306 306 306 306 305 305 304 303 303 302 302 302 302 302 302 303 304 304
295 291 303 302 303 304 305 305 307 309 309 308 307 306 306 306 307 306 307 306 306 306 306 304 303 303 303 303 304 304 304 305 305 305 305 306 306 307 306 307 306 306 306 304 304 304 304 306 307 307 307 306 305 304 303 303 303 304 303 303 303 304 304 305 306 306 306 305 305 306 306 306 306 306 305 305 304 302 301 300 300 300 300 300 301 302 302
295 294 301 303 305 306 307 306 305 305 307 307 308 308 308 308 308 307 307 308 306 307 305 305 304 304 304 303 303 304 304 304 305 305 305 306 306 308 308 309 308 307 306 305 304 304 304 306 307 306 305 304 303 303 302 303 303 303 303 303 302 304 304 305 305 305 305 299 303 305 305 305 304 305 305 305 304 303 302 300 298 297 298 298 298 299 300
299 302 303 303 305 305 306 307 307 307 307 307 308 307 309 309 307 307 308 308 308 307 306 306 305 304 304 305 304 304 305 305 306 306 306 307 307 308 308 309 308 307 307 306 306 305 305 307 307 306 305 305 304 304 303 303 303 302 302 301 304 305 304 304 304 304 305 305 305 304 305 305 305 305 305 305 305 306 305 303 300 299 299 298 299 299 299
293 295 299 304 295 294 302 304 306 307 308 309 309 308 307 307 306 307 306 306 308 308 308 306 306 305 305 306 306 306 306 306 307 307 307 308 308 308 308 309 309 308 308 307 307 306 306 307 307 306 305 304 304 303 302 301 302 302 302 302 304 305 303 303 303 303 305 304 304 304 304 304 304 305 297 295 300 303 304 297 292 292 291 298 300 299 299
294 301 304 305 304 303 305 306 308 309 310 310 308 308 306 307 308 308 307 306 307 307 308 308 307 306 305 306 307 306 306 307 307 308 308 307 307 307 308 308 309 308 308 308 307 306 306 307 307 306 304 304 303 303 302 302 302 301 302 302 302 303 303 303 299 301 303 304 304 304 304 303 304 302 304 304 291 291 294 295 293 292 290 290 290 290 295
304 305 306 307 304 302 306 308 310 310 312 310 309 309 308 308 308 308 308 308 306 306 307 308 308 307 307 307 308 307 307 308 308 308 309 309 309 309 309 308 308 308 308 308 307 306 306 307 306 306 304 303 304 303 302 302 302 302 301 301 301 302 303 303 302 302 302 303 304 304 303 302 303 301 301 301 303 293 288 292 292 291 291 291 290 290 290
302 307 307 308 307 306 309 311 311 312 312 311 309 309 309 309 308 309 308 308 308 307 306 306 307 308 308 308 308 308 307 308 309 308 308 307 307 309 309 308 308 308 308 309 309 308 307 307 306 305 304 303 304 304 303 302 301 301 301 301 302 302 304 304 302 302 301 303 302 303 303 302 302 301 301 300 299 301 301 294 293 293 292 291 291 291 291
307 307 309 309 308 308 310 308 308 310 312 311 311 311 310 309 310 309 309 309 308 308 308 308 308 308 308 308 308 309 309 309 307 308 309 308 309 309 308 308 308 309 309 309 309 308 308 307 306 306 304 304 304 304 303 303 302 301 301 301 301 302 303 303 302 303 303 303 302 302 302 302 302 301 301 301 300 300 300 302 302 298 293 291 291 291 290
307 309 309 306 304 305 307 305 304 310 312 312 312 312 312 312 310 311 311 310 310 310 309 309 309 310 310 310 309 310 309 309 310 309 309 309 309 309 310 310 310 310 309 309 309 307 305 307 306 305 304 304 305 305 303 303 302 302 301 301 300 297 292 296 302 302 303 303 302 302 302 302 300 299 300 298 299 299 299 299 300 299 301 303 295 290 300
306 308 307 302 301 303 305 308 309 310 310 311 312 311 312 313 312 310 310 310 310 311 311 311 310 310 310 311 310 309 310 309 308 309 309 309 310 311 311 311 311 310 310 309 309 309 308 307 306 305 305 305 305 305 304 303 303 302 301 300 300 299 301 303 303 305 304 304 303 302 302 300 301 299 296 299 295 299 297 300 300 300 299 302 302 297 295
304 305 308 307 306 307 309 310 308 307 308 311 311 311 312 310 310 309 309 309 310 310 309 310 311 311 310 310 310 309 309 310 309 309 309 310 311 311 312 312 311 311 310 309 309 309 309 308 306 305 305 306 305 305 304 303 303 302 301 300 299 299 299 301 302 303 304 304 304 304 297 296 301 302 300 300 298 300 299 300 298 299 300 301 302 302 299
304 305 306 306 307 307 307 306 305 306 307 309 310 309 309 309 308 308 308 309 309 309 309 311 311 310 311 310 310 310 309 309 310 311 311 311 311 312 312 312 311 311 310 309 309 309 309 308 306 305 306 307 306 305 304 304 303 303 303 302 301 298 298 300 301 301 303 303 303 296 300 302 302 302 299 300 299 298 298 299 299 297 300 300 297 299 299
304 305 305 306 305 306 305 305 305 306 307 308 309 309 308 308 308 308 308 309 309 309 310 310 311 311 311 310 311 312 311 311 311 311 311 311 312 312 311 311 308 306 307 307 308 309 308 308 307 306 307 306 306 305 304 304 303 303 303 303 303 295 290 291 292 297 300 300 301 302 302 301 301 300 298 298 299 299 300 300 299 298 297 299 299 298 299
303 304 306 306 305 305 305 305 305 305 306 308 308 308 308 308 307 308 309 309 310 310 311 311 311 311 312 312 312 311 311 311 311 311 311 311 311 312 312 311 310 304 309 309 308 307 308 308 307 308 308 307 306 305 304 304 304 303 303 298 301 302 295 289 298 296 295 297 301 300 299 302 301 300 299 299 301 300 299 299 299 298 298 297 298 299 299
301 301 302 303 303 304 304 305 304 305 306 307 308 309 309 310 310 309 309 310 311 311 311 311 311 312 313 313 312 311 311 310 310 310 310 310 310 312 312 312 311 311 310 310 310 310 309 308 308 309 308 307 306 305 305 305 304 303 303 303 303 302 296 294 294 296 297 297 300 301 302 301 301 300 301 299 300 299 300 299 299 297 298 299 298 300 299
303 302 303 305 305 303 303 304 306 306 307 308 309 310 309 310 310 310 310 310 311 311 311 311 312 313 312 312 311 311 311 309 306 307 309 309 310 311 312 311 311 311 311 311 311 310 310 309 310 310 309 308 306 306 305 305 304 303 304 304 303 303 302 301 300 299 299 298 299 298 300 302 302 302 300 299 301 299 299 298 297 297 299 298 299 299 295
306 306 306 306 307 307 307 306 306 306 306 306 308 310 310 311 311 310 311 311 311 312 313 312 312 312 311 311 310 310 309 307 307 307 308 308 309 311 312 312 311 311 310 311 310 310 311 311 311 310 309 308 307 307 307 306 305 304 304 304 304 302 302 303 300 299 300 299 300 301 302 302 302 297 298 300 301 300 300 299 299 299 299 299 299 300 299
306 305 305 306 306 307 307 308 308 308 308 308 309 310 310 310 311 311 310 310 312 313 312 312 312 311 311 309 308 308 307 308 308 308 308 309 310 311 310 309 308 308 308 308 310 311 311 311 300 298 308 308 307 307 307 307 306 305 305 304 302 302 302 300 301 300 301 300 300 302 301 297 298 298 298 300 300 300 299 300 300 300 299 299 299 299 299
307 307 306 306 307 308 308 308 308 308 308 309 309 310 310 311 311 312 312 312 311 312 313 312 311 310 309 309 309 309 309 309 309 309 309 309 311 310 309 308 308 307 307 306 308 311 310 310 296 288 299 306 305 306 306 293 305 305 304 304 304 303 302 302 303 303 301 302 301 302 299 299 302 302 300 302 302 301 302 301 299 299 300 298 299 298 297
308 307 308 308 308 309 309 309 309 309 309 309 309 308 309 311 312 312 311 311 311 312 313 312 311 310 310 309 309 308 309 309 309 309 309 309 310 309 308 308 306 307 306 307 309 309 311 305 287 297 307 305 305 306 302 290 293 302 303 303 303 303 302 301 301 300 300 302 299 302 301 302 302 302 303 302 302 302 302 301 300 301 300 299 299 299 297
308 308 308 309 309 309 310 310 311 310 309 309 309 310 310 310 312 312 311 311 312 312 312 311 310 309 309 308 307 308 308 309 309 309 309 309 310 309 307 308 309 309 309 311 311 310 309 305 309 309 308 307 307 307 301 290 288 302 303 304 304 304 303 303 301 300 300 302 301 301 302 301 302 301 301 302 302 301 298 299 300 298 299 300 299 298 299
308 308 308 308 308 308 309 309 310 310 310 310 311 311 311 310 310 310 311 311 313 310 311 311 309 307 308 307 307 307 308 309 310 309 309 310 310 310 309 309 310 312 311 303 310 310 305 295 304 310 309 309 309 308 306 300 293 300 304 304 303 303 302 302 303 301 302 302 302 296 301 300 301 300 300 300 301 300 301 301 300 300 300 300 300 300 298
309 309 309 308 309 310 309 309 309 310 311 311 312 312 312 311 311 311 310 311 312 312 312 311 309 307 308 308 308 308 309 310 310 310 310 310 309 307 306 306 310 312 312 312 311 309 304 302 307 309 310 308 309 303 309 296 301 305 305 304 303 303 303 303 302 301 302 301 299 301 301 301 300 300 300 300 301 301 301 301 301 300 301 301 301 300 300
310 310 310 309 310 310 309 309 310 311 311 311 311 313 313 313 311 310 310 311 312 311 311 310 303 309 309 309 309 309 310 310 310 311 311 308 307 306 306 307 310 312 303 302 302 304 308 308 307 300 309 309 308 291 290 299 303 304 304 304 304 302 302 303 301 301 301 301 301 302 301 301 301 300 300 300 299 299 300 299 300 300 301 300 299 300 299
310 310 310 309 310 310 310 310 310 310 310 311 311 311 313 313 313 312 311 311 311 310 310 310 309 305 307 310 309 309 309 310 310 310 310 310 311 311 308 309 312 312 292 306 308 310 309 310 309 310 298 303 300 286 287 299 302 303 303 302 303 301 301 301 301 301 302 302 303 303 302 302 302 302 301 301 300 300 300 300 300 300 300 301 301 299 298
311 310 310 310 310 309 310 310 309 309 308 310 312 313 313 313 312 311 310 310 309 309 309 309 309 309 308 309 309 308 308 308 309 309 308 308 309 311 312 310 310 304 293 304 306 307 307 307 306 297 288 289 288 286 297 302 303 304 303 303 302 303 304 303 303 303 304 302 302 303 303 300 302 302 301 301 301 301 302 300 301 301 300 300 299 299 298
311 311 310 310 310 311 310 309 309 308 309 310 312 312 312 312 312 311 310 310 308 309 307 309 309 309 309 310 310 310 309 310 310 310 307 305 304 306 310 302 306 304 302 295 304 304 305 305 296 286 288 286 287 286 298 302 304 304 305 305 306 305 304 303 302 304 302 303 302 302 301 302 302 302 302 301 297 299 300 300 300 300 299 299 299 299 299
312 312 312 303 311 309 309 309 310 310 310 310 310 310 310 311 311 311 311 310 309 310 310 310 310 310 310 310 310 310 310 310 310 310 309 308 307 308 307 300 305 298 292 291 304 305 304 286 286 288 286 287 286 295 304 305 304 305 305 305 304 305 303 303 303 304 304 302 302 302 302 302 301 301 301 301 301 300 299 296 296 298 300 300 300 299 298
311 312 313 312 311 311 312 313 312 312 311 309 307 307 309 311 311 311 311 311 310 311 311 312 311 311 311 311 309 308 308 308 309 310 311 310 308 304 298 295 293 291 296 305 303 302 299 297 291 285 287 286 284 303 306 306 305 305 304 305 303 303 302 303 302 303 302 303 300 298 295 298 300 301 301 299 300 300 300 300 299 299 299 299 298 296 295
311 311 311 311 312 313 312 311 310 309 309 307 308 308 309 311 312 311 313 313 312 312 312 311 310 310 310 311 311 311 310 308 305 307 309 310 309 308 307 307 302 293 293 290 291 289 285 286 286 288 288 286 300 305 304 304 302 302 302 302 302 301 301 301 301 301 300 300 298 299 299 299 299 299 299 299 299 299 299 298 298 298 298 298 299 298 298
311 311 311 311 312 311 310 309 308 306 308 308 307 308 309 310 311 311 311 311 310 310 309 310 310 310 310 308 310 310 310 309 309 307 308 309 308 307 304 297 289 289 299 306 303 300 290 288 289 288 288 287 303 302 302 301 300 301 300 299 299 299 299 300 299 298 298 298 298 298 299 297 298 298 298 297 297 298 297 298 298 298 298 297 297 297 298
311 312 311 310 310 309 309 309 309 308 308 309 308 309 310 311 308 309 308 310 309 305 309 310 309 309 309 307 307 308 309 309 309 310 308 308 308 308 305 304 304 296 296 304 303 300 289 287 291 292 296 303 302 300 300 300 299 299 298 299 300 299 297 295 292 293 296 298 297 297 297 296 297 296 295 296 297 298 297 298 298 294 290 292 296 297 296
310 308 309 307 309 310 311 310 309 309 309 309 310 309 310 308 307 306 309 308 310 307 307 308 309 308 308 307 307 307 307 308 306 302 307 306 306 301 298 300 302 300 301 300 303 302 302 301 300 296 298 299 300 300 299 298 297 297 296 298 298 297 297 296 295 297 297 295 295 295 296 296 297 297 297 297 297 297 297 297 296 297 297 297 297 297 297
310 310 310 310 310 310 311 311 310 311 311 310 310 310 309 307 306 307 308 300 308 308 308 307 305 306 307 306 304 304 305 305 304 305 300 301 303 302 298 295 302 301 302 302 302 302 301 299 295 292 292 297 298 298 293 293 295 297 297 295 294 296 294 295 295 295 296 295 295 297 296 296 296 296 296 296 296 296 295 296 297 297 296 297 298 297 298
Wind_Speed
1 1 2 2 2 2 3 3 3 5 4 5 6 7 7 7 5 3 3 3 3 1 3 6 7 9 8 8 7 5 3 3 2 2 2 1 1 1 2 3 4 5 5 5 6 6 7 7 7 7 6 7 6 6 7 7 7 8 7 6 6 6 6 5 5 5 4 5 5 5 5 6 6 6 6 5 6 6 5 5 4 5 5 5 5 6 6
2 3 3 2 3 2 3 4 4 5 5 6 7 8 7 7 8 6 6 5 4 2 2 5 6 6 6 5 5 4 5 6 4 3 2 2 1 1 2 3 4 5 5 5 5 5 6 7 8 8 7 7 8 7 7 7 7 8 7 7 7 6 6 6 5 6 5 4 5 5 5 6 6 6 6 6 6 6 6 5 5 5 6 6 7 7 7
1 2 3 3 4 5 4 2 3 4 4 6 6 6 5 4 6 7 5 4 4 2 1 5 7 5 5 5 6 6 4 2 3 2 2 1 1 1 1 3 3 5 5 6 5 5 5 6 7 6 7 7 8 8 7 7 8 8 7 7 7 6 6 6 6 6 5 5 5 5 5 5 5 6 6 6 6 7 6 6 6 6 6 7 7 7 8
2 1 2 3 5 6 6 4 2 2 4 5 4 4 4 4 4 3 3 4 5 6 5 4 6 6 6 6 5 4 3 4 3 3 2 2 1 1 2 2 3 4 5 6 6 6 5 6 6 7 6 7 8 8 8 8 8 7 7 7 7 7 7 6 6 7 6 6 6 5 5 6 6 6 6 6 6 6 6 7 6 6 7 8 8 7 7
2 2 2 3 3 4 4 2 1 1 3 3 2 2 2 5 2 2 3 1 6 6 6 6 6 6 5 4 5 4 5 5 4 4 3 1 1 1 2 3 3 4 4 5 6 6 6 6 6 7 7 7 8 7 8 7 7 7 7 7 7 7 7 7 7 7 6 6 6 6 6 6 6 7 7 7 7 7 8 8 8 9 8 8 8 8 8
1 1 2 2 3 2 3 5 2 2 2 2 4 3 4 5 6 2 4 5 3 3 5 6 5 5 5 4 3 4 3 5 4 3 3 1 1 1 2 3 3 2 3 4 5 5 6 7 6 6 6 7 6 6 7 6 7 7 7 6 6 7 7 7 7 7 7 6 6 6 6 6 6 7 8 8 8 8 8 9 9 10 10 11 11 11 10
2 2 4 3 4 1 5 3 1 2 3 3 5 5 4 4 7 8 6 5 3 5 5 4 3 2 2 2 4 5 5 4 5 5 3 3 2 2 2 2 3 2 2 3 4 5 6 6 5 5 6 7 6 7 7 7 7 7 7 7 6 7 7 7 8 8 8 7 6 6 7 7 7 8 8 8 9 9 8 9 9 10 10 10 10 10 11
2 3 1 3 1 4 1 1 0 1 2 4 5 5 7 7 7 8 8 6 5 6 5 3 2 1 1 2 3 3 6 5 4 5 3 3 3 3 2 2 2 4 3 3 4 5 4 5 5 6 6 5 6 6 6 7 7 7 7 7 8 8 8 8 9 8 8 8 7 7 7 7 8 8 8 8 9 9 9 9 9 9 9 10 11 11 11
3 2 3 3 2 2 3 2 4 6 3 4 3 4 1 4 6 7 7 6 6 7 6 4 4 3 3 4 4 6 6 7 5 4 4 3 2 2 3 2 4 3 4 4 3 3 5 5 6 6 6 6 6 6 6 6 7 7 7 7 8 8 8 9 9 8 8 8 8 8 9 8 9 9 9 9 9 8 9 9 10 10 10 10 9 10 11
2 4 3 2 2 3 4 3 4 5 1 2 3 4 6 4 4 6 8 8 7 8 7 6 5 4 5 5 5 7 8 7 7 6 4 3 3 3 3 2 3 4 4 4 3 4 5 5 5 5 6 6 6 6 6 6 7 6 7 7 8 8 8 8 8 8 8 8 9 9 9 9 10 9 9 9 9 8 9 9 10 10 10 10 10 10 11
2 3 4 2 2 1 3 4 5 6 4 3 2 4 4 5 2 4 8 9 8 9 8 7 6 5 4 3 1 8 9 7 7 6 5 4 3 1 3 3 4 4 3 3 4 3 4 5 5 5 5 5 6 6 7 7 6 6 7 7 8 8 8 8 7 7 7 7 8 8 9 9 9 10 9 8 8 7 8 8 9 9 8 9 9 9 10
4 4 3 4 1 0 3 5 6 7 5 3 5 5 3 5 2 3 7 9 9 9 9 7 7 6 3 3 2 8 7 6 6 5 3 3 2 3 2 3 2 3 3 4 5 5 5 5 5 5 4 5 5 5 6 6 6 6 7 7 8 7 7 7 6 6 5 6 8 9 9 9 9 9 8 8 7 7 8 7 8 8 8 8 10 9 9
4 6 5 4 3 3 3 5 7 7 5 4 5 2 3 4 1 2 5 8 8 9 8 7 6 6 3 7 4 5 6 6 5 4 1 2 1 2 2 1 2 5 3 3 4 4 4 4 4 5 5 5 6 5 6 5 6 7 7 7 8 8 7 7 7 7 6 6 8 8 8 9 9 9 8 8 8 8 8 7 7 8 9 9 9 9 9
6 4 5 4 3 5 6 6 8 10 7 4 1 6 2 3 2 2 5 7 8 8 9 7 6 0 5 4 3 5 6 7 6 4 4 4 3 2 2 1 3 4 4 3 3 4 4 3 3 4 4 6 6 6 6 5 6 6 7 7 7 8 8 7 7 7 6 7 7 7 8 8 9 9 8 8 7 8 7 8 9 9 8 8 8 8 8
4 3 6 4 6 2 6 12 7 4 4 3 4 5 5 1 2 4 5 6 7 8 8 7 5 2 3 4 4 5 6 6 4 4 4 3 3 3 2 3 5 1 4 2 2 3 2 2 3 3 5 6 6 6 6 6 6 6 6 7 7 7 7 7 6 6 6 7 7 7 7 8 9 9 9 8 8 7 8 8 8 8 8 7 8 8 7
5 3 3 3 2 7 12 11 3 10 9 4 1 1 5 4 3 4 5 5 6 8 7 7 7 5 4 4 4 5 5 5 5 2 2 3 2 2 2 1 3 1 3 2 2 2 3 2 3 3 4 5 5 6 6 5 5 5 5 6 6 7 6 6 6 5 6 5 7 7 8 8 8 8 9 9 8 7 7 7 7 8 7 7 8 8 8
4 3 3 6 5 8 12 10 4 1 8 3 2 3 2 5 4 3 3 6 7 8 7 6 6 6 5 5 6 6 6 5 6 5 5 4 3 2 1 1 2 3 3 2 2 2 2 2 2 3 3 5 6 6 5 4 5 5 5 6 6 6 6 6 5 5 5 5 6 6 7 7 7 8 9 9 8 8 7 7 7 7 7 7 7 8 8
4 8 8 2 3 5 8 9 6 2 3 5 4 4 4 3 3 4 2 5 7 8 7 7 6 6 6 6 6 6 6 6 5 5 4 4 4 3 3 3 3 4 3 3 3 3 4 3 3 3 4 4 5 5 5 4 5 4 5 6 6 6 6 5 5 6 5 5 5 5 6 6 6 6 7 8 7 7 7 7 7 7 8 7 8 8 8
1 3 5 7 7 6 7 8 9 7 5 4 6 7 5 2 5 5 3 4 7 8 8 7 6 6 5 6 6 6 6 6 5 5 5 5 5 4 4 4 4 4 5 5 4 4 5 4 4 4 3 4 3 4 4 5 4 4 5 5 6 5 5 5 5 5 5 6 5 4 5 5 5 6 6 7 7 6 6 6 7 8 7 8 7 8 8
6 6 2 3 3 2 3 5 6 9 11 10 7 6 5 3 6 6 6 5 6 7 8 8 6 6 7 6 6 6 6 6 5 6 6 6 5 5 5 4 5 6 6 6 5 5 5 4 3 4 4 4 3 4 5 4 4 4 4 4 5 5 5 4 4 5 4 1 4 4 4 4 5 5 6 6 6 6 6 6 7 6 7 7 7 8 8
8 9 9 9 6 7 9 8 7 6 6 9 11 9 7 6 7 8 7 7 6 7 6 7 7 7 7 7 7 7 6 6 5 5 5 5 5 4 5 5 7 7 7 6 6 6 6 4 3 4 4 4 2 3 4 4 3 4 4 4 5 5 4 3 3 4 4 3 4 3 3 3 3 4 6 6 6 6 5 5 5 5 6 6 6 7 7
5 6 4 4 4 4 6 6 4 6 6 7 9 11 9 9 9 9 9 9 7 7 6 7 7 8 7 8 8 8 7 6 6 5 5 5 5 6 5 5 6 8 8 8 7 7 6 4 3 4 4 3 2 3 3 3 3 4 4 5 5 4 3 3 3 4 4 3 3 3 3 4 4 3 6 5 2 3 4 3 4 7 6 5 6 6 7
5 5 5 3 5 7 6 2 4 2 4 6 8 12 12 12 11 10 10 10 9 9 8 7 7 7 7 8 8 8 7 6 6 6 6 6 6 6 6 7 8 8 8 8 8 7 6 4 4 4 3 3 3 2 2 2 3 4 4 4 4 3 2 2 3 5 4 3 4 4 4 4 4 5 5 6 11 8 6 6 7 7 8 9 10 9 7
11 9 7 4 5 7 3 4 4 3 4 6 8 10 12 12 11 11 10 9 9 9 9 9 9 8 8 8 7 8 7 7 7 8 7 6 6 6 6 7 7 8 8 8 8 7 6 5 4 4 3 3 3 2 2 2 2 3 4 4 4 4 3 3 2 3 5 3 4 4 4 4 4 5 4 6 1 11 11 8 9 9 9 9 9 9 9
10 7 7 7 7 8 4 2 2 3 4 5 5 7 9 11 11 10 11 10 9 8 8 9 10 10 9 8 8 8 8 7 8 9 8 9 8 8 8 8 8 8 8 7 6 6 5 4 4 4 4 3 2 3 2 2 3 3 4 4 5 5 5 4 4 3 4 3 4 4 4 4 5 4 5 5 5 6 2 10 9 9 8 11 10 10 10
12 10 5 2 4 6 3 4 6 7 7 8 7 6 7 9 10 11 11 11 10 9 8 8 9 10 11 10 9 10 10 10 8 7 8 9 9 8 9 10 10 9 8 7 7 6 5 5 5 5 5 4 3 3 3 3 3 4 4 5 5 5 4 4 5 5 4 3 4 4 3 4 4 5 5 5 6 6 6 6 4 6 12 12 10 10 12
9 7 5 6 9 9 7 8 6 4 8 9 8 7 7 9 9 10 9 10 10 10 10 9 8 8 9 10 10 10 10 9 8 9 9 10 10 11 10 10 10 9 9 7 7 6 5 5 6 6 6 5 4 3 4 3 3 4 4 5 5 5 7 7 6 5 4 4 4 3 4 4 5 5 5 4 5 6 6 6 6 7 7 2 9 11 4
7 7 9 11 10 10 9 8 6 2 3 5 7 8 6 6 8 9 9 10 10 9 9 9 9 8 9 8 9 9 10 10 11 10 10 10 10 10 10 10 9 9 8 8 8 6 7 7 7 6 6 5 4 5 4 4 4 4 4 4 5 5 3 9 7 5 4 4 4 4 4 5 6 5 4 5 4 5 5 6 6 7 6 5 5 1 3
9 8 8 10 12 10 5 2 4 5 5 5 5 6 7 8 9 9 11 11 11 11 10 10 10 10 10 8 8 9 9 9 10 11 10 9 8 8 8 9 9 8 8 8 8 7 6 6 6 6 6 5 5 5 5 4 5 4 4 3 4 4 4 4 4 4 4 4 5 4 4 6 6 5 5 5 5 6 6 6 6 6 6 6 6 6 4
11 11 10 10 11 12 11 10 10 9 8 7 8 8 9 9 10 10 10 11 11 11 11 11 10 10 9 9 9 9 9 9 8 7 7 7 6 6 6 7 7 7 7 8 8 8 7 7 6 6 6 5 5 5 5 5 5 5 5 5 4 4 4 4 4 5 5 5 4 3 6 6 5 5 5 5 5 6 6 6 6 7 6 6 6 7 7
10 10 12 11 12 13 14 14 12 11 10 9 9 9 9 10 11 11 12 12 11 11 11 10 10 10 10 10 9 8 7 6 5 5 5 5 5 5 6 7 8 8 8 8 9 8 7 7 6 6 5 5 5 5 5 5 5 5 5 5 5 7 6 2 5 6 6 6 6 6 6 6 6 6 6 6 6 6 6 6 6 6 7 6 7 6 6
9 8 9 9 10 13 13 12 12 12 11 9 10 11 11 12 13 14 13 11 12 12 11 11 10 10 9 8 7 6 6 5 5 4 4 5 5 6 6 7 8 8 8 8 7 6 6 6 6 6 5 5 5 5 5 5 5 5 5 4 5 4 7 10 6 7 5 6 6 6 6 6 6 6 6 6 6 6 6 6 7 7 7 7 7 7 5
11 11 12 11 10 10 11 11 12 12 12 11 11 10 10 10 10 11 11 11 10 10 10 10 9 9 8 7 7 7 6 5 4 4 5 5 5 5 6 6 6 7 7 7 7 6 6 6 6 5 5 5 5 5 6 6 6 6 5 5 4 4 2 8 7 6 6 7 7 6 6 6 6 6 6 6 7 7 7 7 7 7 7 7 7 7 6
13 12 10 9 10 10 11 12 11 11 10 10 10 9 9 9 9 9 9 10 11 11 11 10 9 8 8 8 8 7 7 5 5 6 6 5 5 5 6 6 5 5 5 5 5 6 6 6 5 5 5 5 6 5 6 6 6 6 6 6 5 5 5 4 6 6 6 6 6 6 7 7 7 7 6 6 6 7 7 8 8 8 8 7 7 8 1
14 14 13 12 11 11 11 10 10 10 10 10 9 8 8 8 8 9 8 9 11 11 10 9 9 9 8 8 8 7 7 6 5 4 3 3 3 3 4 4 4 4 5 6 7 7 7 7 6 6 5 6 6 6 6 7 7 7 7 6 7 6 6 6 6 6 6 6 6 6 6 7 7 7 7 8 8 8 8 8 8 8 8 8 8 7 5
14 13 13 13 13 13 12 11 10 9 7 7 7 7 7 8 9 9 10 11 10 9 9 9 9 9 9 9 8 7 7 6 5 5 4 4 3 4 4 4 4 5 6 7 7 7 7 6 5 3 4 5 5 7 7 7 7 7 7 7 7 7 7 7 7 7 7 7 7 7 7 7 8 8 9 9 9 9 9 9 8 8 8 8 8 8 8
14 13 12 12 11 11 11 10 9 9 8 8 7 7 7 7 9 9 8 8 8 8 9 9 9 10 9 9 7 6 6 5 5 5 5 4 4 4 4 5 5 6 6 6 5 4 5 4 8 10 6 5 6 7 7 8 7 7 7 7 7 8 8 8 8 8 8 8 8 8 9 8 8 8 8 8 8 8 8 8 8 8 8 9 9 8 8
12 13 12 11 10 10 10 9 8 8 7 8 7 7 7 6 7 7 8 8 9 9 9 10 10 10 9 8 7 7 6 6 6 6 5 5 5 5 5 6 6 6 6 5 2 3 3 8 12 7 5 6 6 7 8 12 10 7 7 7 8 8 9 9 9 9 9 9 9 9 9 9 9 9 9 9 9 9 9 9 9 9 9 9 9 9 9
10 9 9 10 9 9 8 7 7 7 7 7 7 6 6 6 6 7 7 8 8 8 9 9 9 9 8 8 8 7 7 7 7 6 6 6 5 6 6 6 6 5 5 3 2 3 4 8 6 5 6 7 8 8 8 10 10 7 7 8 9 9 9 10 10 10 10 10 10 10 10 10 10 11 10 10 10 10 10 10 10 9 9 9 9 9 9
9 10 10 10 10 9 8 8 7 7 6 6 6 6 6 7 7 7 7 8 7 8 9 9 9 8 8 8 8 8 8 8 7 7 7 5 5 6 6 7 8 8 7 6 5 5 3 8 5 5 6 6 7 7 6 9 10 7 8 8 9 9 10 10 10 10 10 10 10 10 10 11 10 11 11 11 10 10 10 10 10 10 10 9 9 9 9
9 9 9 10 9 8 8 8 8 8 8 7 5 4 6 6 7 7 8 8 8 7 8 9 9 8 8 8 8 8 8 7 6 7 5 5 6 7 7 8 5 6 7 6 4 2 6 6 5 6 6 6 6 4 2 9 6 6 7 7 8 8 9 9 9 9 9 9 9 10 10 10 10 11 10 10 10 10 10 11 11 10 10 10 10 9 9
9 9 9 10 9 9 9 9 9 9 8 6 5 5 5 6 6 7 8 7 7 7 7 8 7 6 7 8 8 8 8 7 7 6 6 7 7 7 8 8 6 2 10 8 4 3 5 6 6 5 5 4 2 9 5 3 5 6 6 6 7 7 7 8 8 8 8 8 9 9 9 9 9 10 10 10 10 11 11 11 11 11 10 10 10 9 9
9 10 10 10 10 10 10 10 10 10 9 8 7 6 6 5 5 5 6 6 7 7 7 7 6 4 4 5 6 7 7 5 6 6 6 6 7 7 7 8 5 6 6 1 1 3 3 2 3 0 6 3 4 6 2 4 4 4 5 5 6 6 6 7 7 7 7 7 8 8 8 8 9 9 9 9 10 10 10 10 11 11 10 10 10 9 9
9 9 10 11 11 11 10 10 9 8 8 8 8 8 8 7 7 7 6 6 6 6 6 6 5 5 6 6 6 7 7 6 6 5 5 6 6 8 8 5 4 5 6 2 2 1 1 1 3 7 7 4 3 2 3 4 4 4 4 4 4 5 5 6 6 6 7 7 7 7 8 8 8 8 9 9 9 9 9 9 9 10 10 10 10 10 10
9 9 11 12 12 10 10 9 9 10 8 8 8 7 7 7 6 6 6 6 6 6 6 6 6 5 6 5 5 5 5 5 5 4 5 5 6 3 6 3 2 1 4 2 0 1 0 3 7 7 4 3 1 4 4 3 3 3 3 4 4 5 5 6 6 6 6 7 7 7 7 8 8 8 8 9 9 9 9 9 9 9 9 9 9 9 9
10 10 11 11 11 11 10 10 9 7 8 8 8 7 7 7 8 7 7 7 7 7 7 6 6 6 5 4 4 4 3 3 3 3 3 4 3 3 5 3 3 4 3 2 1 1 5 9 7 6 5 3 4 6 3 2 2 3 3 4 4 5 5 6 6 6 6 7 7 7 7 8 8 9 9 9 9 9 9 9 9 9 9 9 9 9 9
10 9 9 9 9 8 8 7 6 7 7 8 9 8 9 9 8 8 7 8 8 7 6 5 5 4 5 6 5 3 4 5 4 3 2 3 3 4 7 6 6 5 3 1 4 4 4 4 5 4 2 2 7 4 2 2 2 3 4 4 5 5 5 6 6 6 6 6 6 8 9 9 8 8 8 9 9 9 9 9 9 9 9 9 9 10 10
10 10 9 9 9 8 8 7 7 8 8 9 9 9 9 9 9 8 7 6 6 6 5 5 5 6 5 4 2 1 3 4 6 3 3 2 3 4 4 4 5 7 9 9 9 7 7 7 5 4 3 5 5 0 2 2 3 3 4 4 5 5 6 6 5 6 6 7 8 8 8 8 9 9 9 9 9 10 10 10 10 10 10 10 9 9 9
10 9 8 7 7 8 7 7 7 8 8 9 10 9 9 8 9 8 7 7 7 7 6 6 6 6 5 4 2 3 2 2 3 2 5 3 5 6 7 7 6 7 6 5 7 6 5 4 2 3 6 9 2 3 3 4 3 4 4 4 5 5 5 5 6 7 7 7 7 7 8 9 9 9 9 10 10 10 10 10 10 10 10 10 11 11 10
9 8 8 7 7 7 7 7 8 9 9 9 9 9 8 7 8 8 8 8 8 7 7 7 6 6 5 5 4 4 4 4 5 6 6 6 6 6 6 6 5 6 5 4 6 6 7 8 5 2 4 3 3 3 3 4 5 4 4 5 5 6 5 5 7 7 7 7 7 8 9 9 9 9 10 9 9 10 10 10 10 11 12 11 11 11 10
8 8 8 8 8 7 9 9 8 8 9 9 9 8 7 8 9 9 8 9 8 8 7 6 5 5 5 5 5 5 6 6 6 8 7 7 7 7 7 7 6 5 5 4 3 3 4 3 5 4 3 3 3 3 3 5 5 5 4 5 5 6 6 7 7 7 7 8 9 9 9 9 8 9 9 9 10 10 10 11 11 11 11 11 11 11 12
8 7 7 6 6 6 6 7 7 6 6 6 7 7 7 8 9 9 8 8 8 8 8 7 6 5 4 6 6 6 5 7 7 7 7 8 7 7 7 7 6 6 4 3 4 3 3 4 5 5 4 4 4 4 3 2 4 5 5 5 5 6 7 7 6 7 8 9 8 8 8 8 8 9 9 9 10 11 11 11 11 11 12 12 13 12 12
Wind_Direction
211 277 284 282 292 306 330 299 283 279 276 256 259 269 286 302 283 315 2 328 324 39 167 177 176 186 191 188 189 190 182 179 192 222 253 303 334 319 15 24 26 35 35 36 35 32 30 27 29 28 27 32 31 30 28 26 23 22 19 11 16 14 15 17 7 360 354 348 336 339 334 338 333 337 331 329 325 322 319 311 316 314 306 299 282 268 259
220 229 249 245 267 288 262 263 266 260 261 268 271 272 278 278 270 308 323 322 304 343 120 164 160 162 176 156 166 170 190 202 198 217 225 221 248 341 358 16 25 40 34 36 35 36 29 23 20 22 19 25 25 22 24 22 18 16 14 10 13 8 14 12 1 1 356 351 343 336 340 331 335 329 324 325 321 313 308 308 306 307 303 295 289 281 276
213 218 242 252 251 261 277 298 275 250 261 269 264 272 273 270 266 267 287 281 268 121 107 123 95 151 160 163 188 202 211 203 213 245 227 216 292 352 17 20 36 33 35 34 31 30 32 26 19 25 14 26 22 24 20 17 17 10 12 9 9 9 7 4 360 358 357 352 343 344 342 330 328 326 324 323 312 308 310 311 305 296 288 286 284 285 283
155 216 251 239 245 255 269 299 313 241 218 240 229 240 250 229 262 268 267 255 243 138 145 132 160 172 194 204 205 209 197 211 210 228 211 201 236 335 26 33 21 22 27 30 27 19 17 23 20 20 19 22 22 21 21 15 14 7 11 12 7 10 2 359 1 357 354 348 348 342 329 335 329 325 318 309 309 308 307 304 301 301 291 281 279 277 275
86 88 275 261 258 248 241 206 289 305 202 236 300 255 234 245 268 194 227 252 39 101 148 174 175 193 201 216 212 210 215 220 207 194 200 212 212 309 356 357 2 12 17 25 33 16 11 17 22 16 18 20 17 13 15 17 12 6 10 13 8 9 1 2 359 355 348 349 348 343 342 336 334 322 320 314 307 307 301 300 293 282 283 289 285 280 272
39 108 289 223 231 259 55 58 7 255 264 267 259 258 229 205 200 245 293 360 38 143 165 194 168 200 205 221 214 246 229 189 201 209 188 246 350 316 322 340 328 9 1 19 24 19 19 14 17 6 20 17 2 7 10 15 9 10 3 7 8 5 360 1 355 353 347 347 344 346 334 333 331 325 319 316 313 303 297 294 290 286 284 277 274 273 274
313 327 245 213 259 31 67 76 60 252 272 284 276 282 272 230 217 234 249 240 209 188 179 183 172 168 193 203 237 192 213 205 188 193 213 207 238 291 280 296 325 354 328 350 9 14 20 6 359 3 12 9 351 1 5 9 9 6 0 358 5 5 357 355 353 350 346 345 341 341 330 335 333 325 322 316 311 308 303 298 293 291 287 282 277 275 275
274 256 323 280 6 38 81 47 68 106 255 257 274 280 258 239 225 224 236 224 196 187 180 173 140 201 155 177 238 222 185 205 185 188 194 212 229 253 299 335 308 316 333 345 347 5 359 355 1 2 2 357 349 354 358 6 2 3 355 358 2 3 354 355 351 348 344 341 339 335 334 331 331 329 326 319 312 311 308 304 300 298 296 290 284 279 275
299 318 288 312 359 151 144 166 189 186 190 193 226 301 340 183 223 222 225 221 196 188 189 165 150 154 191 228 197 197 199 187 202 201 200 208 233 254 260 261 302 324 322 310 345 339 341 348 352 1 347 350 346 348 356 3 355 356 353 355 357 356 351 351 347 344 341 339 340 337 336 332 332 333 329 323 318 315 309 304 301 298 294 290 290 288 286
283 297 308 275 237 254 145 82 121 183 260 283 237 279 274 183 222 215 222 219 196 192 182 173 162 174 231 235 211 180 194 187 198 196 211 209 238 241 242 261 262 280 289 296 298 311 325 332 337 348 343 351 338 347 357 354 352 347 351 352 352 351 348 347 343 340 341 340 342 343 337 336 334 330 327 323 320 320 314 310 304 301 299 296 288 282 278
228 254 264 276 270 326 42 127 149 168 173 204 210 265 261 119 220 208 223 214 200 196 187 177 173 213 239 244 271 141 176 185 190 201 200 217 214 228 284 294 323 343 312 279 290 271 296 313 346 345 332 332 334 345 356 350 346 345 350 350 346 348 345 343 339 339 341 343 341 338 335 337 333 329 328 327 323 321 314 308 302 299 300 297 296 295 292
246 274 270 269 242 285 144 132 151 159 169 185 244 282 89 113 178 226 215 212 199 195 197 188 202 229 229 251 69 114 159 176 179 217 200 209 195 234 231 248 313 333 320 270 253 263 287 318 327 335 327 330 327 332 351 339 344 347 349 344 342 341 342 339 336 340 343 343 344 341 341 339 337 333 329 325 324 319 312 308 307 309 304 298 296 293 291
202 187 275 283 258 218 150 150 139 141 160 203 248 311 62 71 78 207 210 211 199 191 194 191 223 212 314 45 67 129 149 171 175 182 213 265 292 285 267 65 79 288 327 300 289 296 298 300 326 330 331 323 325 343 338 333 346 345 340 339 340 340 339 338 342 346 341 349 346 345 348 346 340 336 333 326 323 320 317 312 308 306 304 303 302 298 295
258 255 262 270 297 73 124 116 143 146 171 223 331 72 57 73 120 184 199 206 193 187 197 193 240 215 116 90 107 165 167 185 187 188 184 210 218 231 247 100 269 319 321 320 287 264 263 285 308 305 315 319 321 340 330 339 342 334 338 338 335 337 342 340 345 339 340 351 348 349 349 347 343 341 341 331 326 324 319 317 314 310 312 310 308 306 303
243 252 260 276 273 126 163 127 131 185 242 8 65 117 93 134 106 172 183 211 180 189 193 200 221 172 185 169 172 168 180 199 202 202 194 215 221 219 205 217 158 275 312 295 297 283 285 312 303 317 316 313 319 328 330 339 334 335 333 330 334 334 338 330 340 335 338 351 353 356 349 347 349 348 347 340 336 331 327 325 321 319 317 318 317 316 314
264 216 219 245 54 122 162 165 197 186 232 17 116 213 157 151 185 173 170 194 187 187 213 193 207 207 184 190 185 196 201 202 218 204 210 221 230 230 215 322 348 347 311 315 276 279 280 307 320 301 294 303 325 324 325 341 324 316 320 331 330 329 329 331 340 337 342 348 359 358 350 348 350 351 355 350 343 342 337 330 328 324 326 327 325 323 322
226 272 324 55 89 145 177 210 284 73 200 179 184 280 357 155 167 194 177 167 182 191 207 207 207 204 209 211 192 204 206 202 212 207 210 218 223 240 279 300 154 245 306 331 284 262 258 248 267 288 287 301 317 315 330 321 319 318 324 324 331 326 333 338 341 343 347 353 356 3 354 354 352 354 354 356 352 352 345 340 336 332 328 329 324 324 322
238 276 272 195 160 159 192 218 240 211 173 181 193 207 207 207 133 173 197 153 174 188 202 214 193 216 187 206 200 211 206 207 195 210 216 217 223 244 263 259 246 269 286 285 283 284 291 296 299 287 298 304 306 323 324 322 310 320 319 325 328 325 335 336 344 349 343 7 347 5 359 357 359 358 356 355 356 351 349 343 341 335 332 330 327 326 325
271 256 165 229 234 217 215 226 221 217 212 188 205 212 237 185 167 168 176 173 170 185 180 214 202 191 201 196 191 194 199 205 207 208 215 221 228 234 240 247 251 245 250 263 274 287 289 292 292 299 302 298 304 316 325 318 317 312 322 318 320 321 335 331 341 355 336 14 335 1 357 356 3 358 1 360 2 360 350 346 339 336 331 330 328 329 327
233 264 265 151 151 201 209 227 221 218 217 213 199 213 221 196 167 181 169 175 174 174 189 200 200 194 188 200 196 200 202 207 205 211 214 221 224 224 240 240 221 241 248 259 264 275 282 291 287 292 299 306 320 328 317 318 311 307 300 314 315 324 325 325 337 344 339 6 297 355 349 349 348 1 6 2 5 8 3 358 340 330 330 327 328 325 326
244 245 258 248 237 232 221 218 232 250 239 215 202 197 194 186 179 181 178 185 180 180 191 194 204 205 196 200 202 203 206 207 207 209 210 218 228 236 232 222 222 237 242 254 262 264 275 280 273 271 283 292 300 294 301 304 305 296 296 292 283 296 311 311 342 332 325 347 356 337 346 332 344 3 5 358 1 4 41 7 356 336 333 322 318 322 321
246 255 267 200 232 243 195 186 206 222 226 227 208 189 192 196 195 184 186 188 194 205 199 192 196 207 199 199 202 206 207 207 212 217 224 230 232 234 234 236 228 231 239 249 258 266 272 276 260 264 279 280 267 270 290 316 298 278 278 280 277 274 316 316 354 325 325 339 352 337 350 346 335 343 153 192 314 330 355 83 202 248 257 301 325 329 328
251 229 231 227 258 280 312 123 144 177 185 198 201 193 195 194 198 190 190 187 188 199 201 204 206 205 205 195 199 209 211 216 221 232 236 236 232 232 226 228 230 236 239 241 246 255 264 263 250 246 256 263 260 262 280 268 267 273 277 281 284 281 288 334 13 314 309 330 338 331 337 337 337 334 332 173 191 215 215 249 269 258 245 251 261 267 289
267 278 282 257 236 254 221 126 129 150 172 195 200 207 201 196 194 193 196 192 195 199 200 200 209 208 205 208 207 211 216 223 226 229 228 238 248 245 231 234 242 239 236 236 241 251 258 251 246 236 254 250 241 259 259 271 259 260 269 274 288 298 297 328 285 291 317 316 316 322 332 339 336 337 325 336 309 190 209 232 236 230 235 243 245 249 256
256 260 264 243 242 247 246 199 203 185 173 203 205 196 199 198 197 195 200 198 200 201 194 199 202 211 216 211 213 219 227 226 230 233 235 239 242 241 236 233 238 241 242 246 259 262 264 242 245 245 256 255 230 228 239 249 252 257 270 270 278 287 296 284 286 292 289 313 312 320 326 329 331 335 332 337 329 336 232 194 214 242 233 224 228 234 236
248 254 242 222 234 247 243 251 238 222 200 199 207 206 190 200 198 195 202 204 206 207 209 201 202 203 215 222 221 224 231 238 239 227 232 235 227 221 228 230 232 233 236 242 257 262 252 237 240 237 243 253 225 219 235 237 238 252 258 261 261 275 294 310 303 297 297 307 315 315 321 324 324 321 326 329 331 317 307 325 296 217 211 210 220 221 221
240 236 213 229 237 236 222 231 247 204 199 192 207 205 192 187 184 201 206 209 211 209 213 215 219 210 206 218 227 227 234 237 224 221 236 237 233 231 226 224 227 229 231 234 239 236 236 237 235 234 239 241 226 208 226 229 234 247 253 258 265 227 203 261 286 283 284 294 303 308 315 314 313 313 317 321 314 312 322 317 319 323 336 251 197 204 294
237 215 215 235 232 229 226 218 239 212 214 203 209 214 192 179 182 197 202 203 205 205 210 213 215 205 207 205 214 222 224 229 234 234 235 235 235 235 232 227 225 225 224 226 241 233 216 226 229 235 238 238 224 213 225 223 228 243 255 267 257 280 247 195 230 258 278 283 296 297 313 315 313 298 296 306 308 314 312 309 313 324 316 315 323 292 272
234 227 213 228 242 249 265 249 246 246 233 213 212 215 186 187 194 202 204 207 207 205 208 206 207 211 220 216 211 226 228 230 233 238 242 246 250 245 237 228 227 225 222 228 238 245 232 233 233 233 239 237 226 214 226 221 228 241 260 259 278 269 262 275 280 286 287 285 279 294 309 293 283 281 298 298 301 306 307 307 319 315 303 311 322 307 278
237 229 222 225 228 236 241 244 253 253 246 216 200 207 208 212 211 212 213 212 206 207 209 204 198 205 209 216 216 223 230 237 243 249 253 253 249 239 228 221 208 210 218 229 239 248 244 243 237 240 244 235 229 215 219 224 232 245 245 256 266 280 279 287 288 279 275 275 282 241 253 259 274 286 290 299 307 297 296 306 310 299 307 317 311 306 320
235 231 230 231 232 232 236 244 250 252 250 235 219 217 212 215 226 226 221 216 206 212 209 202 198 201 200 211 214 218 226 237 245 248 250 246 238 229 223 209 207 208 212 222 233 246 252 254 251 247 244 241 231 219 218 223 243 242 249 251 252 198 213 244 257 273 283 288 280 281 283 283 286 287 288 292 292 293 301 305 301 305 308 307 311 313 317
243 223 218 229 234 234 235 239 244 244 240 229 219 219 218 215 220 227 228 220 209 208 203 199 198 201 200 201 202 199 202 209 216 223 232 229 223 217 212 214 221 226 225 235 248 256 251 254 251 242 234 232 226 226 218 229 239 251 270 261 274 281 187 196 233 227 251 255 267 271 271 279 281 289 292 287 289 298 304 299 300 304 304 303 303 307 312
233 233 226 223 224 225 231 227 229 232 229 220 218 225 227 222 226 229 229 222 210 201 202 201 202 201 194 185 181 186 187 188 198 209 214 215 208 202 201 211 216 218 226 240 251 258 256 255 259 254 238 228 223 225 224 226 238 257 260 268 279 274 208 185 234 276 254 256 260 264 275 277 282 280 284 286 285 284 286 289 295 296 293 295 294 297 305
229 232 238 229 222 222 222 224 224 234 233 229 226 224 225 222 225 230 231 222 217 203 198 201 198 186 175 176 180 178 171 182 209 207 200 200 190 186 184 195 208 213 228 238 240 245 249 246 249 241 233 231 228 227 226 225 241 248 258 265 262 270 265 264 200 223 257 263 266 264 259 259 260 267 272 275 282 286 285 287 284 284 287 288 290 290 235
232 236 238 242 240 238 238 241 236 230 230 230 221 221 220 221 223 227 227 223 215 206 196 195 185 178 173 176 183 179 186 214 235 242 220 206 201 170 171 175 190 204 221 228 236 242 241 246 239 235 233 230 228 219 216 233 238 250 257 255 258 265 267 263 259 261 268 272 273 275 277 273 273 269 269 272 275 273 271 272 276 280 281 283 288 289 278
227 230 231 232 235 238 237 234 237 244 241 237 233 225 219 219 219 219 209 215 215 207 191 182 174 168 175 185 191 193 202 212 222 222 220 217 195 178 195 217 223 236 240 246 231 234 231 228 198 215 246 231 230 224 229 229 237 245 250 256 260 258 257 258 260 262 257 262 266 266 266 266 270 270 272 272 269 268 268 270 269 271 274 278 284 287 291
222 225 225 226 228 230 231 228 228 230 235 239 240 235 231 223 221 220 216 208 203 199 182 168 163 174 185 192 198 196 205 211 213 217 216 207 191 206 218 238 237 251 253 257 239 217 213 198 151 165 204 222 222 236 224 195 234 243 247 245 252 258 261 262 258 259 259 255 256 256 255 252 250 251 243 244 251 256 259 264 261 263 267 272 274 274 275
214 216 219 220 219 220 223 225 224 226 231 237 238 241 240 233 221 214 206 200 190 185 176 169 174 184 188 187 192 199 204 206 211 216 215 207 205 226 229 240 246 236 238 245 227 213 226 127 139 173 207 225 232 238 210 183 210 236 255 254 260 260 259 260 260 260 260 265 263 264 263 262 265 266 266 262 261 257 256 255 257 261 267 269 268 269 270
210 208 211 210 211 214 215 208 203 216 222 229 232 227 219 219 209 200 194 190 180 170 169 176 178 185 177 184 196 204 210 210 214 216 220 220 211 230 247 248 260 266 282 312 257 252 145 145 199 205 226 236 236 244 219 175 188 221 247 256 256 259 261 261 262 263 264 265 267 269 272 271 270 269 267 268 269 268 261 255 259 267 266 267 269 267 265
204 199 198 194 202 203 201 200 199 201 205 214 214 206 184 188 187 188 178 169 158 164 173 174 180 185 189 198 208 216 219 221 218 218 221 220 217 232 248 247 245 251 244 231 241 250 145 136 198 236 244 239 243 247 248 162 175 223 239 246 251 257 258 261 263 266 267 267 266 258 259 263 263 267 269 272 273 268 270 266 252 244 244 249 252 256 257
204 196 190 193 196 191 193 191 186 191 194 192 185 161 163 173 169 170 165 161 154 168 178 183 190 198 204 210 217 225 230 228 223 225 212 212 224 234 246 263 248 225 207 205 227 192 152 192 224 237 249 250 255 262 254 140 193 243 246 251 257 261 266 264 269 269 275 276 278 277 278 279 279 275 275 274 271 273 272 269 266 262 262 263 263 262 261
206 197 189 188 187 186 183 181 181 182 175 158 146 145 152 159 166 168 166 164 160 170 183 193 206 224 224 224 229 234 238 233 215 211 203 222 237 252 257 262 261 27 87 104 125 181 208 204 215 224 257 276 295 75 23 296 270 268 268 266 268 269 272 276 274 273 275 277 278 281 282 281 280 280 277 274 273 273 274 276 276 274 270 269 268 265 264
198 193 190 187 182 175 174 183 185 174 159 154 157 162 158 164 165 166 163 169 173 180 193 202 179 191 237 235 240 243 245 236 226 213 215 224 234 243 257 273 305 117 158 166 222 259 241 241 251 309 57 27 24 76 247 269 264 262 260 264 265 266 269 270 274 278 278 281 285 287 287 287 287 288 283 281 281 280 280 280 282 282 281 278 276 273 267
195 191 183 177 174 173 180 184 181 176 174 165 162 162 166 169 179 184 183 185 188 193 201 202 200 207 216 227 233 244 245 237 228 218 227 235 229 223 229 248 272 102 99 308 236 258 294 13 54 66 70 66 64 271 265 251 252 250 257 262 272 272 277 279 279 282 286 289 290 292 293 294 290 288 289 289 288 289 291 290 290 288 288 285 283 278 274
191 184 177 175 172 172 181 178 181 183 186 170 165 170 178 182 183 191 196 197 207 204 208 219 222 227 230 228 233 248 263 267 257 229 232 237 249 223 128 151 122 85 86 48 324 14 83 60 65 62 72 93 148 227 246 239 249 268 282 283 284 289 293 290 292 291 291 290 290 291 293 295 294 293 291 291 289 287 286 289 291 293 290 284 280 276 274
191 184 173 169 172 179 183 184 183 182 176 174 178 175 188 199 199 195 201 215 218 214 217 221 226 227 224 210 204 209 221 235 226 230 252 271 299 72 87 43 76 76 118 200 146 108 80 76 67 49 31 355 285 237 234 259 283 286 290 293 297 296 292 295 298 298 299 299 296 298 305 306 302 299 298 300 302 297 291 284 282 279 278 279 279 276 276
187 180 174 177 179 171 163 159 155 167 172 187 200 200 194 199 200 204 204 210 219 220 214 203 198 187 188 197 192 215 251 252 218 167 197 167 124 102 104 106 113 122 177 134 70 62 53 72 60 39 333 248 255 273 344 332 329 323 314 311 308 302 304 304 302 301 303 301 311 304 288 279 283 289 291 287 286 289 294 290 288 289 290 285 279 272 266
188 184 182 180 170 153 150 155 169 187 196 205 212 219 206 197 197 202 195 192 193 188 177 174 169 173 187 194 194 221 266 279 277 167 124 121 114 127 134 119 103 109 105 101 93 91 74 63 49 10 333 288 255 310 360 347 351 329 326 317 316 316 312 312 315 323 320 317 309 306 311 311 308 305 304 302 301 299 299 300 297 297 295 295 291 287 283
192 188 173 167 162 160 169 177 190 201 210 214 217 227 222 204 198 193 190 190 190 185 182 169 171 167 169 161 162 169 163 147 289 164 128 141 131 120 110 114 138 186 194 118 108 101 98 96 102 272 256 250 292 14 1 360 346 333 325 330 323 318 314 323 337 329 317 312 310 310 311 312 306 305 308 309 305 302 302 301 300 300 303 307 303 298 291
181 170 167 174 176 182 185 193 205 214 219 222 226 226 215 203 217 211 200 196 196 189 185 174 173 165 162 155 168 156 143 144 133 126 132 124 124 124 122 108 90 33 36 112 124 121 146 171 149 53 344 18 28 1 14 357 339 335 336 320 323 322 332 334 300 289 299 311 320 316 309 305 308 307 304 301 307 311 306 305 305 303 293 282 285 289 291
175 185 193 187 196 198 199 211 220 222 229 227 229 222 201 212 230 221 208 194 183 183 193 168 163 157 150 142 135 130 133 135 129 136 137 126 115 108 112 118 117 117 116 115 103 100 99 75 43 26 23 14 15 2 13 359 334 325 326 329 331 323 328 325 325 325 332 331 317 312 314 314 317 325 321 318 316 315 315 313 309 310 311 313 309 308 308
178 188 195 193 202 200 203 212 221 220 227 223 219 201 204 217 219 216 200 174 194 196 187 171 163 149 148 139 133 133 137 135 138 133 127 133 136 132 130 142 134 135 133 111 100 96 84 103 109 79 36 5 5 348 10 327 320 326 336 333 340 338 332 326 331 346 340 330 322 320 323 325 331 324 318 320 320 320 317 316 316 316 315 315 314 313 311